Regional Weather Roundup
Issued by NWS

Home | Current Version | Previous Version | Graphics & Text | Print | Product List | Glossary On
Versions: 1 2 3 4 5 6 7 8 9 10 11 12 13 14 15 16 17 18 19 20 21 22 23 24 25 26 27 28 29 30 31 32 33 34 35 36 37 38 39 40 41 42 43 44 45 46 47 48 49 50
473
ASUS45 KSLC 232010
RWRUT

UTAH REGIONAL WEATHER ROUNDUP
NATIONAL WEATHER SERVICE SALT LAKE CITY UT
200 PM MDT TUE MAY 23 2017

UTZ001>011-023>025-232100-

NORTHERN UTAH

CITY           SKY/WX    TMP DP  RH WIND       PRES   REMARKS
BRIGHAM CITY   SUNNY     74  37  26 E3        30.15F
DUGWAY         PTSUNNY   80  27  14 NW6       30.13
HILL AFB       MOSUNNY   73  43  34 SW7       30.17S
LOGAN          SUNNY     75  40  28 CALM      30.14F
OGDEN          SUNNY     74  41  30 VRB6      30.15F
SALT LAKE CITY PTSUNNY   78  40  25 NW8       30.13F
TOOELE VALLEY  SUNNY     77  43  29 N8        30.15S
WENDOVER       SUNNY     78  35  21 SE10      30.13F
HEBER CITY     MOSUNNY   75  37  25 SW5       30.16F
WEST JORDAN    SUNNY     78  54  43 NW9       30.16F

$$

UTZ011>015-024>027-232100-

CENTRAL/NORTHEAST UTAH

CITY           SKY/WX    TMP DP  RH WIND       PRES   REMARKS
PROVO AIRPORT  MOSUNNY   73  40  30 W3        30.16F
MOAB/CANYONLAN SUNNY     72  25  17 VRB6      30.16F
DELTA          SUNNY     77  30  18 CALM      30.17F
PRICE          SUNNY     67  34  29 VRB3      30.20F
ROOSEVELT      SUNNY     68  30  24 S7        30.22F
VERNAL         SUNNY     65  34  31 VRB3      30.21F

$$

UTZ013>016-019>022-027-232100-

SOUTHERN UTAH

CITY           SKY/WX    TMP DP  RH WIND       PRES   REMARKS
BRYCE CANYON   SUNNY     70  31  23 VRB6      30.29F
CEDAR CITY     SUNNY     79  29  16 VRB5      30.19F
MILFORD        SUNNY     80  29  15 NE12G17   30.16F
ST GEORGE      PTCLDY    88  26  10 VRB5      30.04F
HANKSVILLE     SUNNY     72  27  18 SE6       30.18F
BLANDING       SUNNY     71  28  19 NW13G23   30.25F

$$

REGIONAL REPORTS     COLORADO/ARIZONA

CITY           SKY/WX    TMP DP  RH WIND       PRES   REMARKS
CRAIG, CO      MOSUNNY   56  31  38 VRB3      30.26F
GRAND JUNCTION SUNNY     67  28  23 W7        30.17F
RIFLE, CO      SUNNY     67  17  14 N14G23    30.19F
MONTROSE, CO   SUNNY     62  21  20 CALM      30.23F
CORTEZ, CO     SUNNY     69  20  15 NW12      30.18F
COLORADO CITY    N/A     84  27  12 CALM      30.18F
PAGE, AZ       SUNNY     76  33  21 VRB5      30.15F
GRAND CANYON   MOSUNNY   72  29  20 VRB5      30.27F HAZE
KINGMAN, AZ    SUNNY     94  27   9 N13       30.05F
FLAGSTAFF, AZ  SUNNY     73  24  16 NE8       30.26F

$$

REGIONAL REPORTS    NEVADA/IDAHO/WYOMING

CITY           SKY/WX    TMP DP  RH WIND       PRES   REMARKS
LAS VEGAS, NV  MOSUNNY   94  22   7 VRB6      29.96F
ELY, NY        SUNNY     78  28  16 N8        30.22F
ELKO, NV       SUNNY     79  36  21 SW10      30.17F
POCATELLO, ID  MOSUNNY   74  41  30 NW6       30.14F
BURLEY, ID     SUNNY     75  37  25 VRB6      30.11F
FORT BRIDGER,    N/A     70  34  26 W16G22    30.27F
EVANSTON, WY   MOSUNNY   66  38  35 VRB6      30.25F
ROCK SPRINGS,  SUNNY     61  27  27 N7        30.23F
KEMMERER, WY     N/A     64  32  29 W15G23    30.25F

$$




USA.gov is the U.S. government's official web portal to all federal, state and local government web resources and services.